Notices

What's New in latest Release from April 7th, 2021:

- Updated Glossary, including Speed of Maximum Gust, and Total Hourly Precipitation

- Updated national and regional climate services offices contacts and prices information

- Addition of station inventory lists for 1981-2010, 1971-2000, and 1961-1990 Normals.

If you haven't already, please take our survey and provide feedback about our website: https://eccc.sondage-survey.ca/f/LanguageSelection.aspx?s=442ca660-fcf1-47c0-95a9-59707d6fd709

Hourly Data Report for May 15, 2003

TORONTO CITY
ONTARIO

43°40'00.000" N
79°24'00.000" W
112.50 m
6158355
71508
XTO

Download Data

Hourly Data (May 2003)
Hourly Data Report for May 15, 2003
TIME
LST
Temp Definition
°C
Dew Point Definition
°C
Rel Hum Definition
%
Precip. Amount Definition
mm

Wind Dir Definition
10's deg

Wind Spd Definition
km/h
Visibility Definition
km
Stn Press Definition
kPa
Hmdx Definition


Wind Chill Definition


Weather Definition


00:00 10.5 5.9 73   LegendMM LegendMM LegendMM 100.25     LegendNANA
01:00 10.1 5.9 75   LegendMM LegendMM LegendMM 100.27     LegendNANA
02:00 10.6 6.0 73   LegendMM LegendMM LegendMM 100.28     LegendNANA
03:00 9.3 5.9 79   LegendMM LegendMM LegendMM 100.27     LegendNANA
04:00 9.7 6.1 78   LegendMM LegendMM LegendMM 100.28     LegendNANA
05:00 9.5 5.7 77   LegendMM LegendMM LegendMM 100.32     LegendNANA
06:00 9.3 5.7 78   LegendMM LegendMM LegendMM 100.39     LegendNANA
07:00 11.2 6.4 72   LegendMM LegendMM LegendMM 100.40     LegendNANA
08:00 13.1 6.5 64   LegendMM LegendMM LegendMM 100.41     LegendNANA
09:00 14.1 6.2 59   LegendMM LegendMM LegendMM 100.40     LegendNANA
10:00 15.4 6.9 57   LegendMM LegendMM LegendMM 100.40     LegendNANA
11:00 15.7 6.4 54   LegendMM LegendMM LegendMM 100.38     LegendNANA
12:00 14.5 5.6 55   LegendMM LegendMM LegendMM 100.37     LegendNANA
13:00 13.8 5.4 57   LegendMM LegendMM LegendMM 100.39     LegendNANA
14:00 13.3 5.7 60   LegendMM LegendMM LegendMM 100.39     LegendNANA
15:00 12.4 6.5 67   LegendMM LegendMM LegendMM 100.40     LegendNANA
16:00 12.0 6.7 70   LegendMM LegendMM LegendMM 100.37     LegendNANA
17:00 11.0 6.8 75   LegendMM LegendMM LegendMM 100.42     LegendNANA
18:00 10.5 8.6 88   LegendMM LegendMM LegendMM 100.42     LegendNANA
19:00 11.0 8.9 87   LegendMM LegendMM LegendMM 100.41     LegendNANA
20:00 11.9 9.3 84   LegendMM LegendMM LegendMM 100.45     LegendNANA
21:00 11.7 9.6 87   LegendMM LegendMM LegendMM 100.51     LegendNANA
22:00 12.2 10.3 88   LegendMM LegendMM LegendMM 100.51     LegendNANA
23:00 12.7 10.1 84   LegendMM LegendMM LegendMM 100.50     LegendNANA

Notes on Data Quality.

Legend

  • E = Estimated
  • M = Missing
  • NA = Not Available*
  • [empty] = Indicates an unobserved value
Date modified: